LUDI TANCE-4 01A

Last updated on Thu Aug 13 2026 00:03:03 GMT+0000 (Coordinated Universal Time)

1 57624U 23120A 26224.37600818 -.00000205 00000+0 00000+0 0 9997 2 57624 15.0697 192.5867 0002758 23.9634 329.3503 1.00270209 11100
UTC large
Height (km)
Speed (km/s)
/
Latitude / Longitude
Inclination (degrees)
Orbital Period (minutes)
Azimuth
Elevation
Range (km)
Doppler Factor

Next 0 passes for location: London (51.5072 / 0.1276)

No passes found over London.
LUDI TANCE-4 01A